Location: Rochester
(43.1610°N, 77.6109°W)
Time: 09:32:57
(UTC-05:00)

CUTE 1.7 + AOD 2 - Pass Details

Date: 23 October 2021
Orbit: 592 x 611 km, 97.6° (Epoch: 04 December)

Event Time Altitude Azimuth Distance (km) Brightness Sun altitude
Rises 05:21:09 0° 13° (NNE) 2,885 ? -24.9°
Reaches altitude 10° 05:23:21 10° 15° (NNE) 1,975 ? -24.5°
Maximum altitude 05:27:39 80° 102° (ESE) 625 ? -23.7°
Enters shadow 05:28:52 46° 182° (S) 821 ? -23.5°
